| time (UTC) | temp C | wind direction | speed KPH | gust KPH | rain 1hr cm | rain 24hr cm | rain mn cm | humidity % | barometer mb |
| 20260506092026 | 5 | 108 | 0.0 | 0.0 | 0.00 | 0.00 | 0.00 | 90 | 1018.8 |
| 20260506091027 | 6 | 108 | 0.0 | 0.0 | 0.00 | 0.00 | 0.00 | 90 | 1018.7 |
| 20260506090057 | 6 | 108 | 0.0 | 0.0 | 0.00 | 0.00 | 0.00 | 90 | 1018.8 |
| 20260506083027 | 6 | 108 | 0.0 | 0.0 | 0.00 | 0.00 | 0.00 | 90 | 1018.4 |
| 20260506082026 | 6 | 108 | 0.0 | 0.0 | 0.00 | 0.00 | 0.00 | 90 | 1018.3 |
| 20260506081027 | 6 | 108 | 0.0 | 0.0 | 0.00 | 0.00 | 0.00 | 90 | 1018.4 |
| 20260506073027 | 6 | 109 | 0.0 | 0.0 | 0.00 | 0.00 | 0.00 | 88 | 1018.7 |
| 20260506071027 | 6 | 109 | 0.0 | 0.0 | 0.00 | 0.00 | 0.00 | 87 | 1018.5 |
| 20260506062028 | 6 | 109 | 0.0 | 0.0 | 0.00 | 0.00 | 0.15 | 86 | 1017.8 |
| 20260506061027 | 6 | 109 | 0.0 | 0.0 | 0.00 | 0.00 | 0.15 | 85 | 1017.9 |
| 20260506051027 | 7 | 109 | 0.0 | 0.0 | 0.00 | 0.00 | 0.15 | 85 | 1016.9 |
| 20260506045027 | 7 | 109 | 0.0 | 0.0 | 0.00 | 0.00 | 0.15 | 86 | 1016.7 |
| 20260506044027 | 6 | 109 | 0.0 | 0.0 | 0.00 | 0.00 | 0.15 | 86 | 1016.0 |
| 20260506043028 | 6 | 109 | 0.0 | 0.0 | 0.00 | 0.00 | 0.15 | 87 | 1016.0 |
| 20260506042027 | 6 | 109 | 0.0 | 0.0 | 0.00 | 0.00 | 0.15 | 87 | 1015.9 |
| 20260506041027 | 6 | 109 | 0.0 | 0.0 | 0.00 | 0.00 | 0.15 | 87 | 1016.0 |
| 20260506040057 | 6 | 109 | 0.0 | 0.0 | 0.00 | 0.00 | 0.15 | 87 | 1015.9 |
| 20260506035027 | 6 | 109 | 0.0 | 0.0 | 0.00 | 0.00 | 0.15 | 87 | 1015.2 |
| 20260506034027 | 6 | 109 | 0.0 | 0.0 | 0.00 | 0.00 | 0.15 | 87 | 1015.2 |
| 20260506033027 | 7 | 109 | 0.0 | 0.0 | 0.00 | 0.00 | 0.15 | 87 | 1015.6 |
| 20260506032027 | 7 | 109 | 4.8 | 0.0 | 0.00 | 0.00 | 0.15 | 87 | 1015.5 |
| 20260506030027 | 7 | 109 | 0.0 | 0.0 | 0.00 | 0.00 | 0.15 | 87 | 1015.3 |
| 20260506025027 | 7 | 109 | 0.0 | 0.0 | 0.00 | 0.00 | 0.15 | 87 | 1015.2 |
| 20260506024027 | 7 | 109 | 0.0 | 0.0 | 0.00 | 0.00 | 0.15 | 87 | 1015.0 |
| 20260506023027 | 7 | 109 | 0.0 | 0.0 | 0.00 | 0.00 | 0.15 | 86 | 1014.8 |
| 20260506021028 | 8 | 109 | 0.0 | 0.0 | 0.00 | 0.00 | 0.15 | 86 | 1014.8 |
| 20260506013038 | 8 | 109 | 0.0 | 0.0 | 0.00 | 0.00 | 0.15 | 83 | 1014.2 |
| 20260506012038 | 8 | 109 | 0.0 | 0.0 | 0.00 | 0.00 | 0.15 | 82 | 1014.3 |
| 20260506011039 | 8 | 109 | 0.0 | 0.0 | 0.00 | 0.00 | 0.15 | 81 | 1014.8 |
| 20260506005038 | 9 | 133 | 0.0 | 0.0 | 0.00 | 0.00 | 0.15 | 77 | 1014.7 |
| 20260506003038 | 9 | 115 | 0.0 | 0.0 | 0.00 | 0.00 | 0.15 | 77 | 1014.6 |
| 20260506002039 | 9 | 80 | 0.0 | 0.0 | 0.00 | 0.00 | 0.15 | 77 | 1014.5 |
| 20260506001039 | 9 | 66 | 0.0 | 0.0 | 0.00 | 0.00 | 0.15 | 77 | 1014.6 |
| 20260505235038 | 9 | 109 | 0.0 | 0.0 | 0.00 | 0.00 | 0.15 | 78 | 1014.7 |
| 20260505234038 | 9 | 144 | 0.0 | 0.0 | 0.00 | 0.00 | 0.15 | 78 | 1014.8 |
| 20260505233039 | 9 | 145 | 0.0 | 0.0 | 0.00 | 0.00 | 0.15 | 79 | 1014.9 |
| 20260505232039 | 9 | 134 | 0.0 | 0.0 | 0.00 | 0.00 | 0.15 | 79 | 1014.9 |
| 20260505231038 | 9 | 148 | 0.0 | 0.0 | 0.00 | 0.00 | 0.15 | 78 | 1014.9 |
| 20260505230039 | 9 | 125 | 0.0 | 0.0 | 0.00 | 0.00 | 0.15 | 79 | 1015.0 |
| 20260505225038 | 9 | 99 | 0.0 | 0.0 | 0.00 | 0.00 | 0.15 | 80 | 1015.0 |
| 20260505224039 | 8 | 139 | 0.0 | 0.0 | 0.00 | 0.00 | 0.15 | 79 | 1014.6 |
| 20260505223039 | 8 | 80 | 0.0 | 0.0 | 0.00 | 0.00 | 0.15 | 81 | 1014.7 |
| 20260505222038 | 8 | 106 | 0.0 | 0.0 | 0.00 | 0.00 | 0.15 | 80 | 1014.7 |
| 20260505221038 | 8 | 100 | 0.0 | 0.0 | 0.00 | 0.00 | 0.15 | 81 | 1014.8 |
| 20260505220040 | 8 | 109 | 0.0 | 0.0 | 0.00 | 0.00 | 0.15 | 81 | 1015.0 |
| 20260505215039 | 8 | 137 | 0.0 | 0.0 | 0.00 | 0.00 | 0.15 | 82 | 1014.9 |
| 20260505214039 | 8 | 108 | 0.0 | 0.0 | 0.00 | 0.00 | 0.15 | 82 | 1014.9 |
| 20260505213038 | 8 | 131 | 0.0 | 0.0 | 0.00 | 0.00 | 0.15 | 83 | 1015.1 |
| 20260505212039 | 8 | 127 | 0.0 | 0.0 | 0.00 | 0.00 | 0.15 | 83 | 1015.2 |
| 20260505211038 | 7 | 102 | 0.0 | 0.0 | 0.00 | 0.00 | 0.15 | 84 | 1014.7 |
| 20260505205040 | 7 | 143 | 0.0 | 0.0 | 0.00 | 0.00 | 0.15 | 83 | 1014.7 |
| 20260505204039 | 8 | 97 | 0.0 | 0.0 | 0.00 | 0.00 | 0.15 | 83 | 1015.2 |
| 20260505203038 | 8 | 112 | 0.0 | 0.0 | 0.00 | 0.00 | 0.15 | 84 | 1015.2 |
| 20260505201039 | 8 | 119 | 0.0 | 0.0 | 0.00 | 0.00 | 0.15 | 83 | 1015.0 |
| 20260505200039 | 8 | 139 | 0.0 | 0.0 | 0.00 | 0.00 | 0.15 | 84 | 1015.1 |
| 20260505195039 | 7 | 150 | 0.0 | 0.0 | 0.00 | 0.00 | 0.15 | 83 | 1014.6 |
| 20260505194038 | 8 | 73 | 0.0 | 0.0 | 0.00 | 0.00 | 0.15 | 83 | 1014.7 |
| 20260505193039 | 7 | 98 | 0.0 | 0.0 | 0.00 | 0.00 | 0.15 | 85 | 1014.4 |
| 20260505192039 | 7 | 134 | 0.0 | 0.0 | 0.00 | 0.00 | 0.15 | 85 | 1014.5 |
| 20260505191039 | 7 | 104 | 0.0 | 0.0 | 0.00 | 0.00 | 0.15 | 84 | 1014.5 |
| 20260505190040 | 7 | 133 | 9.7 | 0.0 | 0.00 | 0.00 | 0.15 | 85 | 1014.5 |
| 20260505185039 | 7 | 120 | 9.7 | 0.0 | 0.00 | 0.00 | 0.15 | 86 | 1014.2 |
| 20260505183040 | 6 | 126 | 9.7 | 0.0 | 0.00 | 0.00 | 0.15 | 88 | 1014.0 |
| 20260505182039 | 6 | 143 | 17.7 | 0.0 | 0.00 | 0.00 | 0.15 | 89 | 1013.6 |
| 20260505181039 | 6 | 77 | 9.7 | 0.0 | 0.00 | 0.00 | 0.15 | 89 | 1013.6 |
| 20260505180038 | 6 | 70 | 9.7 | 0.0 | 0.00 | 0.00 | 0.15 | 88 | 1013.5 |
| 20260505175039 | 5 | 62 | 0.0 | 0.0 | 0.00 | 0.00 | 0.15 | 89 | 1013.3 |
| 20260505174039 | 5 | 82 | 9.7 | 0.0 | 0.00 | 0.00 | 0.15 | 89 | 1013.2 |
| 20260505172039 | 5 | 168 | 4.8 | 0.0 | 0.00 | 0.00 | 0.15 | 89 | 1012.9 |
| 20260505171040 | 5 | 324 | 0.0 | 0.0 | 0.00 | 0.00 | 0.15 | 90 | 1012.9 |
| 20260505165038 | 5 | 278 | 9.7 | 0.0 | 0.00 | 0.00 | 0.15 | 91 | 1012.2 |
| 20260505164040 | 5 | 343 | 9.7 | 0.0 | 0.00 | 0.00 | 0.15 | 91 | 1012.0 |
| 20260505163039 | 4 | 284 | 9.7 | 0.0 | 0.00 | 0.00 | 0.15 | 92 | 1011.5 |
| 20260505162039 | 4 | 314 | 17.7 | 0.0 | 0.00 | 0.00 | 0.15 | 92 | 1011.5 |
| 20260505161039 | 3 | 313 | 9.7 | 0.0 | 0.00 | 0.00 | 0.15 | 92 | 1011.3 |
| 20260505153039 | 4 | 42 | 4.8 | 0.0 | 0.00 | 0.00 | 0.15 | 93 | 1011.0 |
| 20260505152039 | 4 | 31 | 4.8 | 0.0 | 0.00 | 0.00 | 0.15 | 93 | 1010.8 |
| 20260505151039 | 3 | 25 | 4.8 | 0.0 | 0.00 | 0.00 | 0.15 | 93 | 1010.6 |
| 20260505125039 | 2 | 58 | 4.8 | 0.0 | 0.00 | 0.00 | 0.15 | 93 | 1009.7 |
| 20260505124039 | 2 | 44 | 0.0 | 0.0 | 0.00 | 0.00 | 0.15 | 93 | 1009.7 |
| 20260505123039 | 2 | 32 | 9.7 | 0.0 | 0.00 | 0.00 | 0.15 | 93 | 1009.6 |
| 20260505120039 | 2 | 41 | 4.8 | 0.0 | 0.00 | 0.00 | 0.15 | 93 | 1009.7 |
| 20260505115039 | 2 | 77 | 4.8 | 0.0 | 0.00 | 0.00 | 0.15 | 93 | 1009.9 |
| 20260505114039 | 2 | 16 | 0.0 | 0.0 | 0.00 | 0.00 | 0.15 | 93 | 1009.8 |
| 20260505112040 | 2 | 11 | 0.0 | 0.0 | 0.00 | 0.00 | 0.15 | 93 | 1010.0 |
| 20260505111039 | 2 | 11 | 0.0 | 0.0 | 0.00 | 0.00 | 0.15 | 93 | 1010.2 |
| 20260505102039 | 1 | 11 | 0.0 | 0.0 | 0.00 | 0.00 | 0.15 | 93 | 1010.5 |
| 20260505101039 | 1 | 11 | 0.0 | 0.0 | 0.00 | 0.00 | 0.15 | 93 | 1010.4 |
| 20260505100040 | 1 | 11 | 0.0 | 0.0 | 0.00 | 0.00 | 0.15 | 93 | 1010.6 |
| 20260505095039 | 1 | 11 | 0.0 | 0.0 | 0.05 | 0.00 | 0.15 | 93 | 1011.0 |
| 20260505094040 | 1 | 11 | 4.8 | 0.0 | 0.05 | 0.00 | 0.15 | 93 | 1010.8 |